Mitchell, SD

4:37 PM CDT on October 21, 2017 (GMT -0500)
Mitchell Municipal

Weather History for KMHE - January, 2013

Change the Weather History Date:

Tuesday, January 22, 2013

  Actual Average Record
Temperature  
Mean Temperature 11 °F 19 °F  
Max Temperature 16 °F 28 °F 61 °F (1900)
Min Temperature 5 °F 9 °F -25 °F (1937)
Degree Days  
Heating Degree Days 54 46  
Month to date heating degree days 999 1023  
Since 1 July heating degree days 3849 3958  
Cooling Degree Days 0 0  
Month to date cooling degree days 0 0  
Year to date cooling degree days 0 0  
Moisture  
Dew Point 3 °F    
Average Humidity 71    
Maximum Humidity 83    
Minimum Humidity 58    
Precipitation  
Precipitation T in 0.01 in 0.61 in (1982)
Month to date precipitation 0.10 0.16  
Year to date precipitation 0.10 0.16  
Snow  
Snow 0.00 in - 9.00 in (1982)
Month to date snowfall 1.5  
Since 1 July snowfall 11.9  
Snow Depth 2.00 in    
Sea Level Pressure  
Sea Level Pressure 30.33 in    
Wind  
Wind Speed 6 mph (SSE)    
Max Wind Speed 15 mph    
Max Gust Speed 18 mph    
Visibility 10 miles    
Events Snow    
T = Trace of Precipitation, MM = Missing Value Source: NWS Daily Summary

Daily Weather History Graph

Daily Weather History Graph

Search for Another Location

Airport or City:

Trip Planner

Search our weather history database for the weather conditions in past years. The results will help you decide how hot, cold, wet, or windy it might be!

Date:

Astronomy

Jan. 22, 2013 Rise Set
Actual Time 7:58 AM CST 5:29 PM CST
Civil Twilight 7:26 AM CST 6:01 PM CST
Nautical Twilight 6:51 AM CST 6:36 PM CST
Astronomical Twilight 6:17 AM CST 7:10 PM CST
Moon 1:52 PM CST (1/22) 4:22 AM CST (1/22)
Length of Visible Light 10h 34m
Length of Day
9h 31m
Waxing Gibbous, 83% of the Moon is Illuminated
Jan 22
Waxing Gibbous
Jan 26
Full
Feb 3
Last Quarter
Feb 10
New
Feb 17
First Quarter

Hourly Weather History & Observations

Time (CST) Temp. Windchill Dew Point Humidity Pressure Visibility Wind Dir Wind Speed Gust Speed Precip Events Conditions
12:53 AM 7.0 °F 0.1 °F -2.0 °F 67% 30.42 in 10.0 mi WSW 3.5 mph - N/A   Overcast
1:53 AM 7.0 °F - -2.9 °F 64% 30.41 in 10.0 mi Calm Calm - N/A   Partly Cloudy
2:53 AM 6.1 °F - -2.0 °F 69% 30.42 in 10.0 mi Calm Calm - N/A   Mostly Cloudy
3:53 AM 6.1 °F - -2.0 °F 69% 30.40 in 10.0 mi Calm Calm - N/A   Clear
4:53 AM 6.1 °F - -0.9 °F 73% 30.41 in 10.0 mi Calm Calm - N/A   Clear
5:53 AM 7.0 °F - -0.0 °F 73% 30.40 in 10.0 mi Calm Calm - N/A   Overcast
6:53 AM 7.0 °F - -0.0 °F 73% 30.42 in 10.0 mi Calm Calm - N/A   Overcast
7:53 AM 7.0 °F 0.1 °F -2.0 °F 67% 30.41 in 10.0 mi SE 3.5 mph - N/A   Overcast
8:53 AM 8.1 °F -2.0 °F -0.9 °F 67% 30.39 in 10.0 mi SSE 5.8 mph - N/A   Overcast
9:53 AM 9.0 °F -3.2 °F -2.0 °F 61% 30.41 in 10.0 mi South 8.1 mph - N/A   Overcast
10:53 AM 10.0 °F -2.9 °F -2.0 °F 58% 30.41 in 10.0 mi SSE 9.2 mph - N/A   Overcast
11:53 AM 10.9 °F -2.6 °F -0.0 °F 61% 30.40 in 10.0 mi SE 10.4 mph - N/A   Overcast
12:48 PM 10.4 °F -3.3 °F 3.2 °F 73% 30.27 in 9.0 mi SSE 10.4 mph - 0.00 in Snow Light Snow
12:53 PM 10.9 °F -2.6 °F 3.0 °F 70% 30.35 in 8.0 mi South 10.4 mph - 0.00 in Snow Light Snow
1:53 PM 12.9 °F -0.2 °F 5.0 °F 71% 30.32 in 10.0 mi SSE 10.4 mph - 0.00 in   Overcast
2:53 PM 12.9 °F -0.2 °F 6.1 °F 74% 30.31 in 10.0 mi SE 10.4 mph - N/A   Overcast
3:53 PM 14.0 °F 2.9 °F 7.0 °F 74% 30.30 in 10.0 mi SE 8.1 mph - N/A   Overcast
4:53 PM 15.1 °F 3.3 °F 8.1 °F 74% 30.29 in 10.0 mi SE 9.2 mph - N/A   Overcast
5:53 PM 16.0 °F 6.3 °F 9.0 °F 74% 30.28 in 10.0 mi SE 6.9 mph - N/A   Overcast
6:53 PM 16.0 °F 5.3 °F 9.0 °F 74% 30.29 in 10.0 mi SE 8.1 mph - N/A   Overcast
7:53 PM 15.1 °F 2.5 °F 9.0 °F 77% 30.27 in 10.0 mi SSE 10.4 mph - N/A   Overcast
8:38 PM 14.0 °F 1.2 °F 8.6 °F 79% 30.17 in 10.0 mi SSE 10.4 mph - N/A   Mostly Cloudy
8:53 PM 14.0 °F -0.8 °F 8.1 °F 77% 30.25 in 10.0 mi SSE 13.8 mph - N/A   Mostly Cloudy
9:53 PM 12.9 °F -0.9 °F 7.0 °F 77% 30.24 in 10.0 mi SSE 11.5 mph - N/A   Clear
10:53 PM 10.9 °F 1.4 °F 7.0 °F 84% 30.24 in 10.0 mi SSE 5.8 mph - N/A   Clear
11:53 PM 10.9 °F 1.4 °F 7.0 °F 84% 30.23 in 10.0 mi South 5.8 mph - N/A   Clear